When you browse on this site, cookies collect data to enhance your experience and personalize the content and advertising you see.
Visit our Privacy Policy to learn more. By continuing to use the site, you agree to this use of cookies and data.
  • En España
  • Lista de países
  • Para 7 días
  • Temperatura del agua
  • Mapa Satelital
  • El tiempo en el mapa
  • Informadores
  • user-avatar
    Iniciar sesión

    Tiempo cada hora Lubango

    Hoy, 25 Junio, Martes

    Tiempo Temperatura Precipitaciones Viento Presión Humedad
    00:00 +11°C° 0 mm 1 mps 608 mmHg 32%
    01:00 +11°C° 0 mm 1 mps 607 mmHg 32%
    02:00 +11°C° 0 mm 1 mps 607 mmHg 30%
    03:00 +11°C° 0 mm 1 mps 607 mmHg 29%
    04:00 +11°C° 0 mm 1 mps 607 mmHg 28%
    05:00 +11°C° 0 mm 1 mps 607 mmHg 28%
    06:00 +11°C° 0 mm 1 mps 608 mmHg 28%
    07:00 +11°C° 0 mm 1 mps 608 mmHg 28%
    08:00 +15°C° 0 mm 1 mps 610 mmHg 25%
    09:00 +19°C° 0 mm 1 mps 611 mmHg 21%
    10:00 +21°C° 0 mm 2 mps 612 mmHg 18%
    11:00 +23°C° 0 mm 2 mps 612 mmHg 17%
    12:00 +24°C° 0 mm 2 mps 611 mmHg 15%
    13:00 +25°C° 0 mm 2 mps 611 mmHg 14%
    14:00 +25°C° 0 mm 2 mps 611 mmHg 15%
    15:00 +24°C° 0 mm 3 mps 610 mmHg 16%
    16:00 +24°C° 0 mm 3 mps 610 mmHg 17%
    17:00 +19°C° 0 mm 2 mps 609 mmHg 29%
    18:00 +15°C° 0 mm 2 mps 608 mmHg 41%
    19:00 +12°C° 0 mm 2 mps 607 mmHg 53%
    20:00 +12°C° 0 mm 1 mps 607 mmHg 49%
    21:00 +12°C° 0 mm 1 mps 607 mmHg 45%
    22:00 +12°C° 0 mm 1 mps 608 mmHg 41%
    23:00 +12°C° 0 mm 1 mps 608 mmHg 39%

    Mañana, 26 Junio, Miércoles

    Tiempo Temperatura Precipitaciones Viento Presión Humedad
    00:00 +12°C° 0 mm 1 mps 608 mmHg 37%
    01:00 +12°C° 0 mm 1 mps 608 mmHg 35%
    02:00 +11°C° 0 mm 1 mps 608 mmHg 34%
    03:00 +11°C° 0 mm 1 mps 607 mmHg 34%
    04:00 +11°C° 0 mm 1 mps 607 mmHg 34%
    05:00 +11°C° 0 mm 1 mps 608 mmHg 34%
    06:00 +11°C° 0 mm 1 mps 608 mmHg 34%
    07:00 +11°C° 0 mm 1 mps 608 mmHg 34%
    08:00 +15°C° 0 mm 1 mps 609 mmHg 30%
    09:00 +19°C° 0 mm 1 mps 611 mmHg 25%
    10:00 +21°C° 0 mm 2 mps 612 mmHg 21%
    11:00 +23°C° 0 mm 2 mps 612 mmHg 20%
    12:00 +24°C° 0 mm 3 mps 612 mmHg 19%
    13:00 +25°C° 0 mm 3 mps 612 mmHg 18%
    14:00 +25°C° 0 mm 3 mps 611 mmHg 19%
    15:00 +24°C° 0 mm 3 mps 611 mmHg 19%
    16:00 +22°C° 0 mm 3 mps 610 mmHg 20%
    17:00 +19°C° 0 mm 2 mps 609 mmHg 31%
    18:00 +15°C° 0 mm 2 mps 609 mmHg 41%
    19:00 +12°C° 0 mm 1 mps 608 mmHg 51%
    20:00 +12°C° 0 mm 1 mps 608 mmHg 51%
    21:00 +11°C° 0 mm 1 mps 609 mmHg 50%
    22:00 +11°C° 0 mm 1 mps 609 mmHg 49%
    23:00 +11°C° 0 mm 1 mps 609 mmHg 48%

    Pasado mañana, 27 Junio, Jueves

    Tiempo Temperatura Precipitaciones Viento Presión Humedad
    00:00 +11°C° 0 mm 1 mps 609 mmHg 46%
    01:00 +11°C° 0 mm 1 mps 608 mmHg 44%
    02:00 +11°C° 0 mm 1 mps 608 mmHg 43%
    03:00 +11°C° 0 mm 1 mps 608 mmHg 41%
    04:00 +11°C° 0 mm 1 mps 608 mmHg 39%
    05:00 +11°C° 0 mm 1 mps 608 mmHg 39%
    06:00 +12°C° 0 mm 1 mps 609 mmHg 38%
    07:00 +12°C° 0 mm 1 mps 609 mmHg 38%
    08:00 +15°C° 0 mm 1 mps 610 mmHg 32%
    09:00 +20°C° 0 mm 1 mps 612 mmHg 27%
    10:00 +23°C° 0 mm 2 mps 613 mmHg 21%
    11:00 +24°C° 0 mm 2 mps 613 mmHg 20%
    12:00 +25°C° 0 mm 2 mps 612 mmHg 19%
    13:00 +26°C° 0 mm 2 mps 612 mmHg 18%
    14:00 +25°C° 0 mm 2 mps 612 mmHg 19%
    15:00 +25°C° 0 mm 2 mps 611 mmHg 20%
    16:00 +24°C° 0 mm 2 mps 610 mmHg 22%
    17:00 +19°C° 0 mm 2 mps 609 mmHg 32%
    18:00 +16°C° 0 mm 2 mps 608 mmHg 41%
    19:00 +12°C° 0 mm 1 mps 607 mmHg 51%
    20:00 +12°C° 0 mm 1 mps 608 mmHg 50%
    21:00 +12°C° 0 mm 1 mps 608 mmHg 49%
    22:00 +11°C° 0 mm 0 mps 609 mmHg 48%
    23:00 +12°C° 0 mm 1 mps 609 mmHg 46%

    28 Junio, Viernes

    Tiempo Temperatura Precipitaciones Viento Presión Humedad
    00:00 +12°C° 0 mm 1 mps 608 mmHg 43%
    01:00 +12°C° 0 mm 1 mps 608 mmHg 41%
    02:00 +12°C° 0 mm 1 mps 608 mmHg 41%
    03:00 +12°C° 0 mm 1 mps 608 mmHg 40%
    04:00 +12°C° 0 mm 1 mps 608 mmHg 40%
    05:00 +12°C° 0 mm 1 mps 608 mmHg 40%
    06:00 +12°C° 0 mm 1 mps 609 mmHg 41%
    07:00 +12°C° 0 mm 1 mps 609 mmHg 42%
    08:00 +16°C° 0 mm 1 mps 610 mmHg 35%
    09:00 +20°C° 0 mm 1 mps 612 mmHg 29%
    10:00 +24°C° 0 mm 1 mps 613 mmHg 22%
    11:00 +25°C° 0 mm 2 mps 613 mmHg 21%
    12:00 +26°C° 0 mm 2 mps 612 mmHg 20%
    13:00 +27°C° 0 mm 2 mps 612 mmHg 18%
    14:00 +26°C° 0 mm 2 mps 612 mmHg 19%
    15:00 +26°C° 0 mm 2 mps 611 mmHg 20%
    16:00 +25°C° 0 mm 2 mps 610 mmHg 21%
    17:00 +21°C° 0 mm 2 mps 610 mmHg 28%
    18:00 +19°C° 0 mm 1 mps 609 mmHg 35%
    19:00 +15°C° 0 mm 1 mps 608 mmHg 42%
    20:00 +14°C° 0 mm 1 mps 608 mmHg 41%
    21:00 +14°C° 0 mm 1 mps 609 mmHg 41%
    22:00 +14°C° 0 mm 1 mps 609 mmHg 40%
    23:00 +14°C° 0 mm 1 mps 609 mmHg 39%

    29 Junio, Sábado

    Tiempo Temperatura Precipitaciones Viento Presión Humedad
    00:00 +14°C° 0 mm 1 mps 609 mmHg 39%
    01:00 +13°C° 0 mm 1 mps 609 mmHg 38%
    02:00 +13°C° 0 mm 1 mps 609 mmHg 38%
    03:00 +13°C° 0 mm 1 mps 608 mmHg 38%
    04:00 +13°C° 0 mm 1 mps 608 mmHg 38%
    05:00 +13°C° 0 mm 1 mps 609 mmHg 38%
    06:00 +13°C° 0 mm 1 mps 609 mmHg 38%
    07:00 +13°C° 0 mm 1 mps 609 mmHg 38%
    08:00 +16°C° 0 mm 1 mps 611 mmHg 33%
    09:00 +20°C° 0 mm 2 mps 612 mmHg 28%
    10:00 +24°C° 0 mm 2 mps 613 mmHg 22%
    11:00 +25°C° 0 mm 2 mps 613 mmHg 21%
    12:00 +26°C° 0 mm 3 mps 613 mmHg 20%
    13:00 +27°C° 0 mm 3 mps 612 mmHg 18%
    14:00 +27°C° 0 mm 3 mps 612 mmHg 19%
    15:00 +26°C° 0 mm 3 mps 611 mmHg 20%
    16:00 +26°C° 0 mm 2 mps 611 mmHg 21%
    17:00 +21°C° 0 mm 2 mps 610 mmHg 28%
    18:00 +18°C° 0 mm 2 mps 609 mmHg 35%
    19:00 +15°C° 0 mm 1 mps 609 mmHg 43%
    20:00 +15°C° 0 mm 1 mps 609 mmHg 42%
    21:00 +14°C° 0 mm 1 mps 609 mmHg 42%
    22:00 +14°C° 0 mm 1 mps 610 mmHg 42%
    23:00 +14°C° 0 mm 1 mps 610 mmHg 41%

    30 Junio, Domingo

    Tiempo Temperatura Precipitaciones Viento Presión Humedad
    00:00 +14°C° 0 mm 1 mps 610 mmHg 41%
    01:00 +14°C° 0 mm 1 mps 610 mmHg 40%
    02:00 +14°C° 0 mm 1 mps 609 mmHg 40%
    03:00 +13°C° 0 mm 1 mps 609 mmHg 40%
    04:00 +13°C° 0 mm 2 mps 609 mmHg 41%
    05:00 +13°C° 0 mm 2 mps 609 mmHg 40%
    06:00 +13°C° 0 mm 2 mps 610 mmHg 40%
    07:00 +13°C° 0 mm 2 mps 610 mmHg 39%
    08:00 +17°C° 0 mm 2 mps 611 mmHg 34%
    09:00 +20°C° 0 mm 2 mps 612 mmHg 28%
    10:00 +24°C° 0 mm 3 mps 614 mmHg 22%
    11:00 +25°C° 0 mm 2 mps 613 mmHg 21%
    12:00 +26°C° 0 mm 2 mps 613 mmHg 19%
    13:00 +27°C° 0 mm 2 mps 613 mmHg 17%
    14:00 +27°C° 0 mm 2 mps 613 mmHg 18%
    15:00 +27°C° 0 mm 2 mps 612 mmHg 18%
    16:00 +26°C° 0 mm 2 mps 611 mmHg 18%
    17:00 +23°C° 0 mm 2 mps 611 mmHg 23%
    18:00 +19°C° 0 mm 2 mps 610 mmHg 28%
    19:00 +16°C° 0 mm 2 mps 609 mmHg 32%
    20:00 +16°C° 0 mm 1 mps 609 mmHg 33%
    21:00 +15°C° 0 mm 1 mps 609 mmHg 34%
    22:00 +15°C° 0 mm 1 mps 609 mmHg 35%
    23:00 +15°C° 0 mm 2 mps 609 mmHg 35%
    Mostrar más